Temp
10 10 11 11 11 12 12 12 11 11 11 10 10 10 10 11 11 11 11 12 12 13 13 12 12 13 13 12 12 12 12 12 13 13 12 12 12 12 12 12 11 11 11
10 10 10 11 11 11 11 11 11 11 10 10 10 9 9 10 10 10 10 11 11 11 11 12 12 12 12 12 12 12 12 12 12 12 12 12 12 12 12 12 12 11 11
10 9 10 10 10 11 11 11 11 11 10 9 9 9 9 9 9 9 9 10 11 11 11 11 11 11 11 11 11 11 12 12 12 12 12 12 12 12 12 12 12 12 11
9 9 9 9 9 9 10 10 10 10 9 9 8 7 8 7 8 8 8 9 9 10 11 11 11 11 10 10 11 11 12 11 11 12 12 12 12 12 12 12 12 12 12
9 8 8 8 8 8 9 8 9 9 9 9 8 7 7 7 7 7 7 7 8 9 9 9 10 10 9 9 10 11 10 10 11 11 11 11 11 12 11 11 11 12 11
8 7 7 7 7 7 8 8 8 9 9 8 8 7 7 6 6 6 5 5 7 7 8 8 8 8 9 9 9 10 11 11 10 10 10 10 10 11 11 11 11 11 11
7 7 7 6 6 7 7 7 7 7 7 7 7 6 6 6 6 6 6 6 6 7 7 7 7 8 7 7 9 9 9 9 9 9 9 9 10 10 10 10 11 10 11
6 6 6 6 5 6 6 6 5 6 6 6 6 6 5 4 4 5 5 5 5 6 6 6 6 6 6 7 7 8 8 8 9 8 7 7 8 9 9 9 10 10 10
5 6 5 5 5 5 5 5 5 4 5 5 5 5 5 4 4 3 4 4 4 4 5 5 5 5 6 6 6 6 6 7 7 7 6 4 5 7 8 8 8 9 9
4 4 5 4 4 4 4 4 4 4 4 4 4 4 4 5 4 3 2 2 3 3 3 4 4 4 4 4 4 5 5 5 6 6 3 2 2 6 8 8 8 8 8
3 3 3 4 3 3 3 3 3 3 3 3 3 3 3 3 3 3 2 1 1 2 2 2 3 3 3 3 3 4 4 4 4 3 0 -0 -0 4 6 7 7 7 6
2 2 2 2 2 2 2 2 2 2 2 2 2 2 2 2 2 2 2 1 0 -0 0 0 1 1 1 1 1 2 2 2 2 2 -1 -2 -1 3 5 4 4 5 5
1 1 1 1 1 1 1 1 1 1 1 1 1 1 1 1 1 1 1 1 0 -1 -1 -1 -0 -0 -0 -0 -1 -0 0 1 1 1 -0 -2 1 2 2 3 3 3 4
-0 -0 -0 -0 0 0 0 0 0 0 0 0 0 0 0 0 0 0 0 0 -0 -1 -1 -1 -1 -1 -1 -1 -1 -1 -1 -1 -0 -0 -0 0 0 -0 0 1 1 1 1
-1 -1 -1 -1 -1 -1 -1 -1 -1 -1 -0 -1 -1 -1 -1 -1 -1 -1 -1 -1 -1 -1 -2 -2 -2 -2 -2 -2 -2 -2 -2 -2 -2 -1 -1 -1 -1 -1 -1 -1 -1 -1 -1
-2 -2 -2 -3 -2 -2 -2 -2 -2 -2 -2 -2 -2 -2 -2 -2 -1 -1 -2 -2 -2 -2 -2 -2 -3 -3 -3 -3 -3 -3 -3 -2 -2 -2 -2 -1 -1 -1 -2 -2 -2 -2 -1
-3 -3 -3 -3 -3 -3 -3 -3 -3 -3 -3 -3 -3 -3 -3 -2 -2 -2 -2 -2 -3 -3 -3 -3 -3 -4 -4 -4 -4 -4 -3 -3 -3 -2 -2 -2 -2 -3 -3 -3 -4 -4 -4
-4 -4 -4 -4 -4 -4 -4 -4 -4 -4 -4 -4 -3 -3 -3 -3 -3 -3 -3 -4 -3 -4 -4 -4 -4 -4 -5 -5 -5 -4 -4 -4 -4 -3 -4 -4 -3 -4 -4 -4 -5 -5 -5
-4 -5 -5 -5 -5 -4 -4 -4 -5 -5 -5 -5 -5 -5 -5 -5 -4 -4 -4 -4 -4 -4 -5 -5 -5 -5 -5 -5 -5 -5 -5 -5 -4 -4 -4 -5 -5 -5 -5 -4 -5 -5 -4
-5 -5 -5 -5 -5 -5 -5 -6 -6 -6 -6 -5 -5 -5 -5 -5 -5 -5 -5 -5 -6 -6 -6 -6 -6 -6 -6 -6 -6 -6 -6 -6 -6 -6 -6 -5 -5 -5 -5 -5 -5 -5 -5
-6 -6 -6 -6 -6 -6 -6 -7 -7 -7 -6 -6 -6 -6 -6 -6 -6 -6 -6 -6 -6 -6 -7 -7 -7 -7 -7 -7 -7 -7 -7 -7 -6 -6 -7 -7 -6 -6 -6 -6 -6 -6 -6
-6 -6 -6 -7 -7 -7 -7 -7 -7 -7 -7 -7 -6 -6 -6 -6 -6 -7 -7 -7 -7 -7 -7 -8 -8 -8 -8 -8 -8 -8 -8 -8 -8 -7 -7 -7 -7 -7 -7 -7 -7 -7 -7
-7 -7 -7 -7 -8 -8 -8 -8 -8 -7 -7 -7 -7 -7 -7 -7 -7 -7 -7 -7 -8 -8 -8 -8 -8 -8 -8 -8 -9 -9 -9 -9 -8 -8 -9 -8 -8 -8 -8 -8 -8 -7 -7
-7 -7 -8 -8 -8 -8 -8 -8 -8 -8 -7 -8 -8 -8 -8 -8 -8 -8 -8 -8 -8 -8 -8 -9 -9 -8 -9 -9 -9 -9 -9 -9 -9 -8 -9 -9 -8 -8 -8 -8 -8 -8 -8
-7 -8 -8 -8 -9 -8 -8 -9 -9 -8 -8 -8 -8 -8 -8 -8 -8 -8 -9 -8 -8 -8 -8 -9 -9 -9 -9 -10 -10 -10 -9 -9 -9 -9 -9 -10 -9 -9 -9 -8 -8 -8 -8
-8 -8 -9 -9 -9 -9 -9 -9 -9 -9 -9 -9 -9 -9 -9 -9 -9 -10 -11 -11 -11 -9 -9 -9 -9 -10 -10 -10 -10 -10 -10 -10 -10 -10 -10 -10 -10 -10 -10 -9 -9 -9 -9
Height
1562 1564 1566 1568 1569 1571 1573 1576 1578 1581 1583 1585 1587 1590 1592 1593 1595 1597 1598 1599 1600 1601 1601 1601 1603 1604 1603 1605 1606 1608 1609 1611 1612 1612 1613 1614 1615 1615 1616 1616 1616 1617 1618
1561 1564 1565 1567 1569 1571 1573 1575 1578 1580 1583 1585 1588 1590 1591 1594 1595 1597 1598 1599 1600 1602 1603 1602 1602 1605 1605 1604 1605 1607 1608 1610 1612 1612 1613 1615 1615 1616 1617 1618 1618 1618 1619
1560 1562 1564 1566 1568 1570 1572 1575 1577 1579 1582 1584 1586 1589 1591 1594 1595 1596 1599 1600 1600 1603 1603 1604 1604 1604 1606 1603 1605 1606 1609 1611 1611 1612 1614 1615 1616 1616 1616 1618 1618 1618 1620
1559 1560 1563 1565 1567 1569 1571 1573 1576 1578 1580 1583 1585 1588 1590 1592 1593 1596 1598 1599 1601 1603 1602 1604 1605 1605 1606 1606 1607 1608 1609 1612 1611 1612 1614 1614 1615 1616 1616 1617 1617 1617 1620
1557 1559 1561 1563 1565 1567 1569 1572 1574 1577 1579 1582 1584 1586 1588 1590 1592 1594 1596 1598 1601 1601 1602 1604 1604 1605 1605 1604 1608 1608 1609 1611 1611 1612 1613 1613 1614 1614 1615 1614 1616 1617 1618
1556 1558 1560 1561 1563 1565 1568 1570 1573 1575 1578 1580 1583 1585 1587 1589 1590 1592 1594 1596 1597 1599 1601 1602 1605 1605 1604 1604 1606 1608 1609 1612 1612 1611 1613 1614 1613 1613 1614 1615 1615 1616 1616
1552 1556 1558 1560 1562 1564 1566 1569 1571 1573 1575 1578 1581 1584 1585 1587 1588 1590 1592 1593 1594 1596 1598 1601 1602 1603 1604 1604 1605 1607 1608 1610 1611 1611 1612 1612 1613 1613 1613 1613 1614 1614 1615
1550 1553 1556 1559 1561 1563 1565 1567 1569 1571 1573 1576 1579 1582 1584 1587 1587 1588 1589 1591 1593 1594 1596 1597 1598 1599 1599 1601 1602 1605 1606 1608 1608 1611 1610 1611 1611 1611 1612 1614 1613 1613 1613
1547 1550 1554 1557 1559 1561 1563 1565 1568 1570 1572 1574 1577 1580 1582 1583 1585 1587 1588 1589 1591 1592 1593 1594 1595 1596 1597 1598 1600 1601 1602 1604 1606 1607 1606 1608 1608 1609 1610 1611 1612 1611 1611
1544 1548 1551 1554 1557 1559 1561 1563 1566 1569 1571 1573 1575 1577 1579 1581 1582 1586 1587 1588 1589 1590 1591 1592 1592 1593 1594 1595 1597 1599 1599 1600 1601 1602 1603 1605 1603 1602 1605 1606 1607 1608 1608
1543 1546 1549 1551 1554 1557 1559 1562 1564 1566 1568 1570 1572 1574 1576 1578 1580 1582 1584 1585 1587 1588 1589 1590 1591 1592 1593 1594 1595 1595 1596 1596 1598 1599 1601 1600 1598 1598 1600 1600 1602 1603 1602
1542 1544 1547 1550 1552 1554 1557 1560 1562 1564 1566 1569 1571 1572 1574 1576 1578 1580 1581 1582 1584 1586 1587 1588 1589 1589 1590 1591 1592 1593 1594 1595 1596 1597 1597 1596 1594 1595 1597 1596 1597 1598 1597
1541 1543 1545 1548 1550 1553 1555 1558 1560 1562 1564 1566 1569 1570 1572 1574 1576 1578 1579 1580 1581 1583 1584 1586 1587 1588 1588 1589 1590 1590 1591 1592 1592 1593 1593 1593 1592 1593 1594 1594 1594 1594 1594
1540 1542 1545 1547 1549 1552 1554 1556 1559 1561 1563 1565 1567 1569 1570 1572 1574 1575 1577 1579 1580 1581 1582 1583 1585 1586 1587 1588 1588 1589 1589 1589 1590 1590 1590 1590 1590 1590 1591 1592 1591 1591 1590
1539 1541 1544 1546 1549 1551 1554 1556 1558 1560 1562 1564 1566 1568 1569 1571 1572 1574 1576 1577 1579 1580 1581 1582 1583 1584 1585 1586 1587 1587 1588 1588 1589 1589 1589 1588 1588 1588 1588 1589 1589 1589 1588
1539 1542 1544 1546 1549 1552 1554 1555 1558 1560 1562 1564 1565 1567 1569 1570 1572 1573 1574 1576 1577 1579 1580 1580 1581 1582 1583 1584 1585 1585 1586 1586 1586 1586 1586 1586 1586 1586 1586 1586 1586 1586 1585
1539 1541 1544 1547 1550 1552 1554 1556 1559 1561 1563 1564 1565 1567 1568 1570 1571 1572 1573 1575 1576 1577 1578 1579 1579 1580 1581 1582 1582 1582 1583 1583 1583 1583 1583 1583 1582 1582 1582 1582 1582 1582 1581
1539 1542 1544 1548 1551 1553 1555 1557 1559 1561 1563 1565 1566 1567 1568 1569 1570 1572 1572 1573 1574 1576 1577 1578 1578 1578 1579 1579 1579 1580 1579 1579 1579 1579 1579 1579 1579 1579 1579 1579 1578 1578 1577
1539 1542 1545 1549 1551 1553 1555 1557 1558 1560 1562 1563 1565 1566 1567 1568 1569 1570 1571 1572 1573 1574 1575 1575 1576 1576 1576 1576 1576 1576 1576 1576 1576 1576 1575 1575 1575 1575 1575 1575 1575 1574 1574
1539 1542 1546 1549 1551 1552 1553 1555 1557 1559 1561 1563 1564 1565 1566 1567 1567 1568 1568 1569 1571 1571 1572 1573 1573 1574 1574 1573 1573 1573 1573 1572 1573 1573 1572 1571 1571 1572 1572 1571 1570 1569 1569
1540 1544 1547 1549 1550 1551 1553 1555 1557 1559 1560 1561 1563 1564 1565 1566 1566 1567 1567 1567 1568 1568 1570 1570 1570 1570 1571 1570 1570 1570 1570 1569 1569 1569 1569 1569 1568 1568 1568 1567 1566 1565 1565
1540 1543 1545 1547 1548 1550 1552 1554 1556 1558 1559 1561 1562 1563 1564 1564 1564 1565 1564 1565 1566 1566 1567 1567 1567 1567 1567 1567 1567 1567 1566 1566 1566 1566 1565 1566 1564 1564 1563 1562 1561 1561 1560
1540 1541 1543 1545 1546 1549 1551 1553 1554 1556 1558 1559 1560 1561 1561 1562 1562 1562 1562 1563 1563 1563 1563 1562 1563 1563 1563 1563 1563 1564 1564 1562 1561 1562 1561 1560 1560 1560 1559 1558 1558 1556 1556
1538 1539 1541 1543 1545 1547 1549 1551 1552 1554 1555 1556 1557 1558 1558 1559 1559 1558 1558 1559 1559 1559 1559 1559 1558 1558 1558 1559 1559 1558 1559 1558 1557 1557 1557 1555 1556 1555 1554 1553 1552 1551 1550
1536 1537 1539 1541 1543 1545 1547 1549 1550 1552 1553 1553 1554 1554 1555 1555 1555 1554 1553 1553 1554 1554 1554 1553 1552 1552 1552 1553 1553 1553 1554 1553 1551 1551 1552 1550 1550 1549 1548 1547 1547 1546 1545
1534 1536 1538 1539 1541 1543 1545 1547 1547 1549 1549 1550 1550 1550 1550 1550 1549 1549 1549 1548 1547 1548 1548 1547 1547 1546 1546 1547 1548 1548 1547 1547 1548 1546 1547 1546 1544 1545 1542 1540 1541 1540 1538
Wind_Speed
5 7 9 10 10 10 10 10 11 12 15 14 13 11 10 8 8 8 7 8 8 7 8 9 7 5 7 10 10 8 8 8 7 6 7 6 5 4 6 7 7 5 5
8 8 10 10 10 10 10 11 11 11 13 14 13 12 11 10 10 9 6 7 8 8 8 9 16 11 9 11 11 11 9 7 5 5 5 6 6 4 4 4 6 5 4
9 9 11 12 12 12 11 11 11 11 12 12 13 13 12 12 11 10 10 11 12 8 8 11 16 15 9 15 19 16 11 8 7 5 5 5 5 6 5 5 5 6 7
10 10 12 12 12 12 12 12 11 11 12 13 13 14 15 14 12 11 11 11 10 10 11 9 7 7 10 10 8 3 2 3 2 2 4 4 5 7 7 7 7 7 7
10 11 12 13 12 12 12 12 12 11 11 11 12 13 14 14 14 14 15 14 13 11 11 7 9 11 17 16 9 4 3 4 3 4 3 5 5 5 6 9 8 10 9
10 10 12 13 13 13 12 12 12 13 12 11 11 10 11 11 12 14 15 14 18 20 15 11 10 8 8 7 8 10 10 10 6 5 4 4 4 6 6 8 9 9 13
11 10 11 13 14 13 13 14 13 12 14 13 11 9 8 8 9 9 10 11 12 14 17 21 22 20 15 8 10 10 10 9 8 7 9 12 10 6 8 13 11 12 14
12 9 10 12 13 12 14 13 12 12 13 13 12 10 6 6 7 7 7 8 9 10 12 13 17 20 21 20 19 19 19 15 13 11 7 6 8 10 11 13 13 11 14
14 12 11 12 13 13 13 12 13 12 12 13 12 8 6 6 9 7 7 7 7 7 8 9 10 12 13 14 17 21 22 23 23 23 19 9 16 17 16 14 18 19 20
15 14 14 13 13 13 13 14 13 13 12 12 12 12 9 6 6 6 8 8 8 7 8 8 8 8 8 8 10 12 14 17 20 21 12 0 4 25 26 27 27 27 24
15 15 14 14 13 13 13 13 14 14 14 13 12 11 11 9 8 6 5 7 7 7 7 8 8 8 8 8 8 9 10 11 12 11 1 1 7 22 28 29 33 35 33
14 14 14 14 14 14 13 13 13 13 12 12 12 11 10 9 9 9 7 8 8 7 6 6 6 7 7 6 7 7 8 9 10 9 2 2 11 16 16 17 19 22 27
14 14 13 13 13 13 13 12 12 11 10 10 9 9 9 9 9 9 8 8 8 9 8 7 6 6 5 5 5 6 6 8 10 12 11 8 14 11 10 11 12 13 15
12 12 12 12 12 12 11 11 10 9 8 7 7 7 7 7 7 8 8 9 8 9 10 8 8 8 7 7 6 6 6 6 8 10 11 12 12 11 8 10 12 13 14
14 14 13 12 12 12 11 10 9 8 8 7 7 6 5 5 5 5 6 8 8 7 9 10 9 9 9 8 7 7 7 7 7 8 10 10 11 11 10 9 10 12 12
13 13 13 12 12 12 11 10 9 9 8 7 6 5 5 4 4 4 5 6 7 7 7 8 9 9 9 9 9 9 10 10 11 11 12 12 12 13 13 12 11 12 14
13 13 13 13 13 12 12 11 10 8 6 5 5 4 4 4 3 4 4 4 5 6 7 7 8 8 9 10 12 12 13 13 12 12 12 13 13 12 13 11 11 12 13
15 13 14 14 14 13 11 7 4 3 4 5 6 6 6 5 5 4 4 4 5 5 5 7 8 9 10 12 12 12 12 12 11 11 11 11 12 11 12 12 12 10 13
15 16 15 14 12 7 4 5 6 6 6 6 6 5 4 4 3 3 3 3 4 5 5 6 8 9 10 11 12 13 12 12 12 12 11 11 12 12 13 14 14 16 17
15 16 15 11 6 5 6 5 6 7 7 6 5 4 3 2 3 4 4 5 6 6 7 7 8 9 10 11 12 12 12 12 11 12 13 13 13 13 13 14 15 16 17
14 13 8 7 7 6 7 8 8 8 8 7 5 4 4 4 6 7 6 7 7 8 8 8 9 10 11 11 12 12 13 13 12 12 12 12 13 14 15 16 17 18 18
12 8 8 8 8 9 9 9 9 8 8 6 5 5 7 8 8 8 9 10 11 11 11 13 13 14 14 14 13 13 13 14 15 13 13 13 14 13 14 15 16 16 17
9 7 7 9 11 11 11 10 10 9 8 8 8 9 10 10 11 11 12 13 14 14 15 15 17 17 17 15 14 14 16 18 19 17 17 17 14 13 13 14 15 17 18
8 8 9 11 12 11 11 10 10 10 9 11 11 12 12 12 13 14 15 16 16 17 17 19 21 21 21 20 21 20 18 17 16 13 14 20 17 19 19 19 17 18 19
8 8 9 11 12 12 11 10 11 12 13 13 13 14 15 15 15 16 19 19 19 18 18 19 20 21 20 19 18 17 17 20 23 21 15 19 23 22 21 20 17 17 17
8 8 10 11 12 12 11 11 14 14 14 15 15 15 16 17 17 17 16 18 21 21 19 20 20 20 19 20 21 23 24 23 19 21 20 20 19 19 19 22 18 23 23
Wind_Direction
271 220 206 195 189 184 177 175 171 172 171 177 178 181 180 178 173 174 190 179 171 171 146 127 159 151 165 176 170 165 169 167 162 158 154 160 156 137 128 140 133 139 100
274 232 211 201 193 187 182 177 177 178 181 177 177 177 176 177 162 159 169 178 183 154 155 143 124 117 127 146 155 162 155 159 173 183 194 189 180 163 152 150 166 167 154
242 239 216 203 197 193 190 188 187 185 188 192 192 181 181 184 184 172 180 171 164 202 204 147 140 102 106 101 115 136 139 137 140 170 216 223 218 203 198 192 182 187 191
229 227 211 202 199 193 186 185 189 193 191 193 197 193 190 194 190 192 190 190 203 194 174 204 234 207 121 128 171 159 212 195 174 224 227 216 224 228 221 220 214 204 204
226 228 212 202 200 193 190 183 183 189 194 196 198 202 203 200 200 203 206 202 204 200 196 165 158 219 169 149 161 195 232 252 220 203 167 202 204 201 196 197 206 218 214
223 222 210 203 201 194 189 191 190 187 193 199 200 198 200 209 218 221 223 225 220 214 219 218 214 186 195 225 260 248 239 243 224 226 197 190 246 252 214 204 220 203 228
200 222 214 208 202 196 195 191 196 190 187 189 195 194 196 203 208 211 216 224 231 235 228 226 223 225 222 199 223 235 233 239 239 211 228 188 219 209 281 187 218 228 233
192 210 211 211 206 201 196 192 188 196 190 191 194 194 196 213 218 214 216 219 221 222 226 229 229 234 239 239 239 245 244 241 233 203 203 236 219 234 243 239 227 214 214
188 194 210 208 202 199 201 196 197 196 204 198 198 190 186 198 196 214 217 223 229 232 232 231 230 231 234 237 240 245 247 245 249 254 259 245 255 250 250 254 256 254 258
190 192 201 207 204 200 199 198 200 206 208 208 206 207 207 182 180 185 213 218 225 228 231 238 245 245 242 238 238 242 248 248 246 252 259 327 233 257 254 254 257 254 256
187 193 196 203 203 203 201 201 206 207 209 212 216 218 221 222 220 210 200 212 219 226 232 234 237 243 247 246 242 242 240 246 249 244 198 101 227 251 257 254 253 259 264
192 194 195 198 202 203 204 207 209 211 215 219 222 224 226 228 230 223 211 199 205 209 216 224 232 239 246 248 249 250 248 243 240 234 204 240 264 272 277 276 272 264 260
195 191 192 194 196 198 201 204 207 209 212 216 219 220 224 228 231 230 230 217 209 208 211 218 225 233 242 248 253 255 255 251 249 250 247 268 286 297 289 278 280 280 278
190 188 190 190 190 191 191 191 194 196 199 203 208 208 210 215 218 219 224 220 205 209 217 226 232 240 246 252 258 263 267 267 264 266 272 278 287 294 288 273 270 273 276
183 182 180 182 181 180 179 178 178 180 180 184 189 193 197 204 208 213 215 212 212 217 219 228 232 241 247 253 259 264 267 271 275 277 280 285 285 287 285 278 274 276 280
181 179 176 172 171 168 164 160 162 162 162 165 166 170 178 188 197 205 209 216 224 228 226 231 236 244 250 260 266 271 276 279 280 280 278 276 274 273 277 280 282 277 274
177 173 169 165 163 159 152 147 143 142 147 156 165 175 192 203 215 226 233 236 236 234 233 234 243 250 258 269 279 285 289 291 291 288 282 275 272 271 273 277 276 276 276
170 170 165 162 156 151 148 150 169 211 232 234 229 227 228 229 231 238 244 250 251 249 243 243 248 254 262 272 280 287 290 293 291 288 284 281 278 274 269 266 267 272 282
168 163 161 161 160 170 223 259 265 252 225 205 193 185 186 191 205 230 252 264 266 263 257 252 255 262 270 278 284 287 289 290 291 290 287 283 280 276 270 271 272 271 281
167 166 168 176 212 253 248 221 197 188 179 175 178 188 206 237 262 272 276 277 277 276 272 268 269 273 280 287 290 291 290 291 290 290 288 283 280 279 277 275 274 275 279
166 170 197 239 244 220 198 191 191 192 189 191 201 217 240 265 276 276 277 277 276 276 278 278 278 279 283 288 289 294 296 296 292 294 288 284 279 280 281 281 281 281 281
178 198 229 217 202 194 192 195 197 201 206 219 234 257 275 281 279 278 277 276 274 272 273 274 275 277 279 281 286 289 289 295 301 293 285 279 282 282 282 279 278 281 283
195 215 214 211 202 195 195 199 205 211 221 241 263 276 278 279 280 278 275 272 269 269 273 275 273 274 276 280 281 282 286 289 289 290 288 285 282 282 279 282 283 284 284
208 224 213 204 198 198 206 214 227 235 249 268 276 277 277 279 281 281 278 276 274 271 270 268 273 275 273 274 275 282 282 280 282 281 280 287 290 291 292 291 288 287 289
207 206 204 205 202 204 213 223 241 259 270 273 274 276 279 281 282 281 279 279 278 275 272 268 268 269 271 274 279 280 275 277 277 280 266 283 293 297 295 294 293 294 299
203 208 213 212 217 219 227 244 263 266 267 271 275 278 281 284 284 283 283 284 282 282 280 275 268 267 268 263 255 248 256 261 264 271 280 284 291 296 300 302 302 306 304